Time,TemperatureF,DewpointF,PressureIn,WindDirection,WindDirectionDegrees,WindSpeedMPH,WindSpeedGustMPH,Humidity,HourlyPrecipIn,Conditions,Clouds,dailyrainin,SoftwareType,DateUTC
2013-02-12 00:00:00,28.0,23.2,30.16,West,281,0.0,0.0,82,0.00,,---,0.00,VWS V14.01,2013-02-12 06:00:00,
2013-02-12 00:05:00,28.0,23.2,30.20,West,281,0.0,0.0,82,0.00,,---,0.00,VWS V14.01,2013-02-12 06:05:00,
2013-02-12 00:10:00,28.0,22.9,30.16,West,281,0.0,0.0,81,0.00,,---,0.00,VWS V14.01,2013-02-12 06:10:00,
2013-02-12 00:15:00,28.0,22.9,30.16,West,281,0.0,0.0,81,0.00,,---,0.00,VWS V14.01,2013-02-12 06:15:00,
2013-02-12 00:20:00,28.0,22.9,30.16,West,281,0.0,0.0,81,0.00,,---,0.00,VWS V14.01,2013-02-12 06:20:00,
2013-02-12 00:25:00,27.6,22.5,30.16,West,281,0.0,0.0,81,0.00,,---,0.00,VWS V14.01,2013-02-12 06:25:00,
2013-02-12 00:30:00,27.4,22.6,30.16,West,281,0.0,0.0,82,0.00,,---,0.00,VWS V14.01,2013-02-12 06:30:00,
2013-02-12 00:35:00,27.4,22.9,30.16,West,281,0.0,0.0,83,0.00,,---,0.00,VWS V14.01,2013-02-12 06:35:00,
2013-02-12 00:40:00,27.2,22.7,30.16,West,281,0.0,0.0,83,0.00,,---,0.00,VWS V14.01,2013-02-12 06:40:00,
2013-02-12 00:45:00,27.1,22.6,30.20,West,281,0.0,0.0,83,0.00,,---,0.00,VWS V14.01,2013-02-12 06:45:00,
2013-02-12 00:49:00,27.0,22.5,30.19,West,281,0.0,0.0,83,0.00,,---,0.00,VWS V14.01,2013-02-12 06:49:00,
2013-02-12 00:54:00,26.9,22.1,30.16,West,281,0.0,0.0,82,0.00,,---,0.00,VWS V14.01,2013-02-12 06:54:00,
2013-02-12 00:59:00,27.1,22.4,30.16,West,281,0.0,0.0,82,0.00,,---,0.00,VWS V14.01,2013-02-12 06:59:00,
2013-02-12 01:04:00,27.1,22.4,30.20,West,281,0.0,0.0,82,0.00,,---,0.00,VWS V14.01,2013-02-12 07:04:00,
2013-02-12 01:09:00,27.3,22.5,30.16,West,281,0.0,0.0,82,0.00,,---,0.00,VWS V14.01,2013-02-12 07:09:00,
2013-02-12 01:14:00,27.4,22.4,30.20,West,281,0.0,0.0,81,0.00,,---,0.00,VWS V14.01,2013-02-12 07:14:00,
2013-02-12 01:19:00,27.1,22.1,30.16,West,281,0.0,0.0,81,0.00,,---,0.00,VWS V14.01,2013-02-12 07:19:00,
2013-02-12 01:24:00,26.8,21.8,30.16,West,281,0.0,0.0,81,0.00,,---,0.00,VWS V14.01,2013-02-12 07:24:00,
2013-02-12 01:29:00,26.5,22.0,30.20,West,281,0.0,0.0,83,0.00,,---,0.00,VWS V14.01,2013-02-12 07:29:00,
2013-02-12 01:34:00,26.1,21.6,30.20,West,281,0.0,0.0,83,0.00,,---,0.00,VWS V14.01,2013-02-12 07:34:00,
2013-02-12 01:39:00,26.1,21.9,30.19,West,281,0.0,0.0,84,0.00,,---,0.00,VWS V14.01,2013-02-12 07:39:00,
2013-02-12 01:44:00,26.0,21.8,30.19,West,281,0.0,0.0,84,0.00,,---,0.00,VWS V14.01,2013-02-12 07:44:00,
2013-02-12 01:49:00,25.9,22.0,30.19,West,281,0.0,0.0,85,0.00,,---,0.00,VWS V14.01,2013-02-12 07:49:00,
2013-02-12 01:54:00,25.8,21.9,30.15,West,281,0.0,0.0,85,0.00,,---,0.00,VWS V14.01,2013-02-12 07:54:00,
2013-02-12 01:59:00,25.8,21.9,30.19,West,281,0.0,0.0,85,0.00,,---,0.00,VWS V14.01,2013-02-12 07:59:00,
2013-02-12 02:04:00,26.0,22.1,30.15,West,281,0.0,0.0,85,0.00,,---,0.00,VWS V14.01,2013-02-12 08:04:00,
2013-02-12 02:09:00,26.0,22.1,30.15,West,281,0.0,0.0,85,0.00,,---,0.00,VWS V14.01,2013-02-12 08:09:00,
2013-02-12 02:14:00,25.7,21.5,30.15,West,281,0.0,0.0,84,0.00,,---,0.00,VWS V14.01,2013-02-12 08:14:00,
2013-02-12 02:19:00,25.6,21.7,30.15,West,281,0.0,0.0,85,0.00,,---,0.00,VWS V14.01,2013-02-12 08:19:00,
2013-02-12 02:24:00,25.3,21.4,30.19,West,281,0.0,0.0,85,0.00,,---,0.00,VWS V14.01,2013-02-12 08:24:00,
2013-02-12 02:29:00,25.1,21.2,30.19,West,281,0.0,0.0,85,0.00,,---,0.00,VWS V14.01,2013-02-12 08:29:00,
2013-02-12 02:34:00,25.2,21.6,30.18,West,281,0.0,0.0,86,0.00,,---,0.00,VWS V14.01,2013-02-12 08:34:00,
2013-02-12 02:39:00,25.1,21.5,30.14,West,281,0.0,0.0,86,0.00,,---,0.00,VWS V14.01,2013-02-12 08:39:00,
2013-02-12 02:44:00,25.0,21.4,30.18,West,281,0.0,0.0,86,0.00,,---,0.00,VWS V14.01,2013-02-12 08:44:00,
2013-02-12 02:49:00,24.9,21.3,30.17,West,281,0.0,0.0,86,0.00,,---,0.00,VWS V14.01,2013-02-12 08:49:00,
2013-02-12 02:54:00,24.8,21.2,30.13,West,281,0.0,0.0,86,0.00,,---,0.00,VWS V14.01,2013-02-12 08:54:00,
2013-02-12 02:59:00,24.6,21.0,30.13,West,281,0.0,0.0,86,0.00,,---,0.00,VWS V14.01,2013-02-12 08:59:00,
2013-02-12 03:04:00,24.5,20.9,30.17,West,281,0.0,0.0,86,0.00,,---,0.00,VWS V14.01,2013-02-12 09:04:00,
2013-02-12 03:09:00,24.4,20.8,30.17,West,281,0.0,0.0,86,0.00,,---,0.00,VWS V14.01,2013-02-12 09:09:00,
2013-02-12 03:14:00,24.3,20.7,30.13,West,281,0.0,0.0,86,0.00,,---,0.00,VWS V14.01,2013-02-12 09:14:00,
2013-02-12 03:19:00,24.2,20.6,30.13,West,281,0.0,0.0,86,0.00,,---,0.00,VWS V14.01,2013-02-12 09:19:00,
2013-02-12 03:24:00,24.1,20.5,30.12,West,281,0.0,0.0,86,0.00,,---,0.00,VWS V14.01,2013-02-12 09:24:00,
2013-02-12 03:29:00,24.0,20.4,30.12,West,281,0.0,0.0,86,0.00,,---,0.00,VWS V14.01,2013-02-12 09:29:00,
2013-02-12 03:34:00,24.2,20.9,30.12,West,281,0.0,0.0,87,0.00,,---,0.00,VWS V14.01,2013-02-12 09:34:00,
2013-02-12 03:39:00,24.5,21.2,30.16,West,281,0.0,0.0,87,0.00,,---,0.00,VWS V14.01,2013-02-12 09:39:00,
2013-02-12 03:44:00,24.5,21.2,30.16,West,281,0.0,0.0,87,0.00,,---,0.00,VWS V14.01,2013-02-12 09:44:00,
2013-02-12 03:49:00,24.6,21.0,30.13,West,281,0.0,0.0,86,0.00,,---,0.00,VWS V14.01,2013-02-12 09:49:00,
2013-02-12 03:54:00,24.4,20.8,30.12,West,281,0.0,0.0,86,0.00,,---,0.00,VWS V14.01,2013-02-12 09:54:00,
2013-02-12 03:59:00,24.1,20.5,30.12,West,281,0.0,0.0,86,0.00,,---,0.00,VWS V14.01,2013-02-12 09:59:00,
2013-02-12 04:04:00,23.5,19.9,30.12,West,281,0.0,0.0,86,0.00,,---,0.00,VWS V14.01,2013-02-12 10:04:00,
2013-02-12 04:09:00,23.4,20.1,30.16,West,281,0.0,0.0,87,0.00,,---,0.00,VWS V14.01,2013-02-12 10:09:00,
2013-02-12 04:14:00,23.4,20.4,30.12,West,281,0.0,0.0,88,0.00,,---,0.00,VWS V14.01,2013-02-12 10:14:00,
2013-02-12 04:19:00,23.7,20.7,30.16,West,281,0.0,0.0,88,0.00,,---,0.00,VWS V14.01,2013-02-12 10:19:00,
2013-02-12 04:24:00,23.5,20.5,30.17,West,281,0.0,0.0,88,0.00,,---,0.00,VWS V14.01,2013-02-12 10:24:00,
2013-02-12 04:29:00,23.3,20.3,30.17,West,281,0.0,0.0,88,0.00,,---,0.00,VWS V14.01,2013-02-12 10:29:00,
2013-02-12 04:34:00,23.5,20.7,30.12,West,281,0.0,0.0,89,0.00,,---,0.00,VWS V14.01,2013-02-12 10:34:00,
2013-02-12 04:39:00,23.4,20.4,30.12,West,281,0.0,0.0,88,0.00,,---,0.00,VWS V14.01,2013-02-12 10:39:00,
2013-02-12 04:44:00,23.4,20.6,30.16,West,281,0.0,0.0,89,0.00,,---,0.00,VWS V14.01,2013-02-12 10:44:00,
2013-02-12 04:49:00,23.4,20.6,30.17,West,281,0.0,0.0,89,0.00,,---,0.00,VWS V14.01,2013-02-12 10:49:00,
2013-02-12 04:54:00,24.0,21.2,30.13,West,281,0.0,0.0,89,0.00,,---,0.00,VWS V14.01,2013-02-12 10:54:00,
2013-02-12 04:59:00,24.4,21.4,30.13,West,281,0.0,0.0,88,0.00,,---,0.00,VWS V14.01,2013-02-12 10:59:00,
2013-02-12 05:04:00,24.5,21.5,30.17,West,281,0.0,0.0,88,0.00,,---,0.00,VWS V14.01,2013-02-12 11:04:00,
2013-02-12 05:09:00,24.4,21.1,30.17,West,281,0.0,0.0,87,0.00,,---,0.00,VWS V14.01,2013-02-12 11:09:00,
2013-02-12 05:14:00,24.5,21.2,30.17,West,281,0.0,0.0,87,0.00,,---,0.00,VWS V14.01,2013-02-12 11:14:00,
2013-02-12 05:19:00,24.8,21.5,30.17,West,281,0.0,0.0,87,0.00,,---,0.00,VWS V14.01,2013-02-12 11:19:00,
2013-02-12 05:24:00,24.8,21.5,30.17,West,281,0.0,0.0,87,0.00,,---,0.00,VWS V14.01,2013-02-12 11:24:00,
2013-02-12 05:29:00,24.7,21.4,30.13,West,281,0.0,0.0,87,0.00,,---,0.00,VWS V14.01,2013-02-12 11:29:00,
2013-02-12 05:34:00,24.7,21.4,30.13,West,281,0.0,0.0,87,0.00,,---,0.00,VWS V14.01,2013-02-12 11:34:00,
2013-02-12 05:39:00,24.8,21.5,30.17,West,281,0.0,0.0,87,0.00,,---,0.00,VWS V14.01,2013-02-12 11:39:00,
2013-02-12 05:44:00,24.9,21.9,30.12,West,281,0.0,0.0,88,0.00,,---,0.00,VWS V14.01,2013-02-12 11:44:00,
2013-02-12 05:49:00,24.8,21.8,30.12,West,281,0.0,0.0,88,0.00,,---,0.00,VWS V14.01,2013-02-12 11:49:00,
2013-02-12 05:54:00,24.7,21.7,30.17,West,281,0.0,0.0,88,0.00,,---,0.00,VWS V14.01,2013-02-12 11:54:00,
2013-02-12 05:59:00,24.7,21.7,30.11,West,281,0.0,0.0,88,0.00,,---,0.00,VWS V14.01,2013-02-12 11:59:00,
2013-02-12 06:04:00,24.9,21.9,30.11,West,281,0.0,0.0,88,0.00,,---,0.00,VWS V14.01,2013-02-12 12:04:00,
2013-02-12 06:09:00,25.2,22.1,30.11,West,281,0.0,0.0,88,0.00,,---,0.00,VWS V14.01,2013-02-12 12:09:00,
2013-02-12 06:14:00,25.4,22.4,30.12,West,281,0.0,0.0,88,0.00,,---,0.00,VWS V14.01,2013-02-12 12:14:00,
2013-02-12 06:19:00,25.7,22.6,30.11,West,281,0.0,0.0,88,0.00,,---,0.00,VWS V14.01,2013-02-12 12:19:00,
2013-02-12 06:24:00,25.8,22.7,30.11,West,281,0.0,0.0,88,0.00,,---,0.00,VWS V14.01,2013-02-12 12:24:00,
2013-02-12 06:29:00,25.8,22.5,30.11,West,281,0.0,0.0,87,0.00,,---,0.00,VWS V14.01,2013-02-12 12:29:00,
2013-02-12 06:34:00,26.0,22.7,30.16,West,281,0.0,0.0,87,0.00,,---,0.00,VWS V14.01,2013-02-12 12:34:00,
2013-02-12 06:39:00,25.9,22.6,30.11,West,281,0.0,0.0,87,0.00,,---,0.00,VWS V14.01,2013-02-12 12:39:00,
2013-02-12 06:44:00,25.9,22.6,30.11,West,281,0.0,0.0,87,0.00,,---,0.00,VWS V14.01,2013-02-12 12:44:00,
2013-02-12 06:49:00,25.8,22.5,30.11,West,281,0.0,0.0,87,0.00,,---,0.00,VWS V14.01,2013-02-12 12:49:00,
2013-02-12 06:54:00,25.7,22.4,30.16,West,281,0.0,0.0,87,0.00,,---,0.00,VWS V14.01,2013-02-12 12:54:00,
2013-02-12 06:59:00,25.6,22.3,30.11,West,281,0.0,0.0,87,0.00,,---,0.00,VWS V14.01,2013-02-12 12:59:00,
2013-02-12 07:04:00,25.6,22.3,30.16,West,281,0.0,0.0,87,0.00,,---,0.00,VWS V14.01,2013-02-12 13:04:00,
2013-02-12 07:09:00,25.4,22.1,30.16,West,281,0.0,0.0,87,0.00,,---,0.00,VWS V14.01,2013-02-12 13:09:00,
2013-02-12 07:14:00,25.2,21.9,30.16,West,281,0.0,0.0,87,0.00,,---,0.00,VWS V14.01,2013-02-12 13:14:00,
2013-02-12 07:19:00,25.1,22.0,30.17,West,281,0.0,0.0,88,0.00,,---,0.00,VWS V14.01,2013-02-12 13:19:00,
2013-02-12 07:24:00,25.0,22.0,30.16,West,281,0.0,0.0,88,0.00,,---,0.00,VWS V14.01,2013-02-12 13:24:00,
2013-02-12 07:29:00,25.0,22.2,30.15,West,281,0.0,0.0,89,0.00,,---,0.00,VWS V14.01,2013-02-12 13:29:00,
2013-02-12 07:34:00,25.2,22.4,30.11,West,281,0.0,0.0,89,0.00,,---,0.00,VWS V14.01,2013-02-12 13:34:00,
2013-02-12 07:39:00,25.4,22.6,30.16,West,281,0.0,0.0,89,0.00,,---,0.00,VWS V14.01,2013-02-12 13:39:00,
2013-02-12 07:44:00,25.5,22.7,30.12,West,281,0.0,0.0,89,0.00,,---,0.00,VWS V14.01,2013-02-12 13:44:00,
2013-02-12 07:49:00,25.6,22.8,30.17,West,281,0.0,0.0,89,0.00,,---,0.00,VWS V14.01,2013-02-12 13:49:00,
2013-02-12 07:54:00,25.8,23.0,30.17,West,281,0.0,0.0,89,0.00,,---,0.00,VWS V14.01,2013-02-12 13:54:00,
2013-02-12 07:59:00,26.0,23.2,30.17,West,281,0.0,0.0,89,0.00,,---,0.00,VWS V14.01,2013-02-12 13:59:00,
2013-02-12 08:04:00,26.3,23.5,30.13,West,281,0.0,0.0,89,0.00,,---,0.00,VWS V14.01,2013-02-12 14:04:00,
2013-02-12 08:08:00,26.7,23.9,30.17,West,281,0.0,0.0,89,0.00,,---,0.00,VWS V14.01,2013-02-12 14:08:00,
2013-02-12 08:13:00,26.7,23.6,30.13,West,281,0.0,0.0,88,0.00,,---,0.00,VWS V14.01,2013-02-12 14:13:00,
2013-02-12 08:18:00,26.7,23.6,30.17,West,281,0.0,0.0,88,0.00,,---,0.00,VWS V14.01,2013-02-12 14:18:00,
2013-02-12 08:23:00,26.9,23.8,30.17,West,281,0.0,0.0,88,0.00,,---,0.00,VWS V14.01,2013-02-12 14:23:00,
2013-02-12 08:28:00,27.1,24.0,30.17,West,281,0.0,0.0,88,0.00,,---,0.00,VWS V14.01,2013-02-12 14:28:00,
2013-02-12 08:33:00,27.1,24.0,30.17,West,281,0.0,0.0,88,0.00,,---,0.00,VWS V14.01,2013-02-12 14:33:00,
2013-02-12 08:38:00,27.4,24.3,30.17,West,281,0.0,0.0,88,0.00,,---,0.00,VWS V14.01,2013-02-12 14:38:00,
2013-02-12 08:43:00,27.6,24.5,30.12,West,281,0.0,0.0,88,0.00,,---,0.00,VWS V14.01,2013-02-12 14:43:00,
2013-02-12 08:48:00,27.6,24.5,30.12,West,281,0.0,0.0,88,0.00,,---,0.00,VWS V14.01,2013-02-12 14:48:00,
2013-02-12 08:53:00,27.8,24.4,30.11,West,281,0.0,0.0,87,0.00,,---,0.00,VWS V14.01,2013-02-12 14:53:00,
2013-02-12 08:58:00,28.1,24.7,30.16,West,281,0.0,0.0,87,0.00,,---,0.00,VWS V14.01,2013-02-12 14:58:00,
2013-02-12 09:03:00,28.5,24.9,30.16,West,281,0.0,0.0,86,0.00,,---,0.00,VWS V14.01,2013-02-12 15:03:00,
2013-02-12 09:08:00,29.2,25.3,30.11,West,281,0.0,0.0,85,0.00,,---,0.00,VWS V14.01,2013-02-12 15:08:00,
2013-02-12 09:13:00,29.6,25.4,30.10,West,281,0.0,0.0,84,0.00,,---,0.00,VWS V14.01,2013-02-12 15:13:00,
2013-02-12 09:18:00,29.9,25.7,30.10,West,281,0.0,0.0,84,0.00,,---,0.00,VWS V14.01,2013-02-12 15:18:00,
2013-02-12 09:23:00,30.5,26.0,30.10,West,281,0.0,0.0,83,0.00,,---,0.00,VWS V14.01,2013-02-12 15:23:00,
2013-02-12 09:28:00,31.0,26.5,30.14,West,281,0.0,0.0,83,0.00,,---,0.00,VWS V14.01,2013-02-12 15:28:00,
2013-02-12 09:33:00,31.3,26.5,30.10,West,281,0.0,0.0,82,0.00,,---,0.00,VWS V14.01,2013-02-12 15:33:00,
2013-02-12 09:38:00,31.2,26.1,30.10,West,281,0.0,0.0,81,0.00,,---,0.00,VWS V14.01,2013-02-12 15:38:00,
2013-02-12 09:43:00,31.2,25.8,30.09,West,281,0.0,0.0,80,0.00,,---,0.00,VWS V14.01,2013-02-12 15:43:00,
2013-02-12 09:48:00,31.5,25.8,30.14,West,281,0.0,0.0,79,0.00,,---,0.00,VWS V14.01,2013-02-12 15:48:00,
2013-02-12 09:53:00,31.9,26.1,30.14,West,281,0.0,0.0,79,0.00,,---,0.00,VWS V14.01,2013-02-12 15:53:00,
2013-02-12 09:58:00,32.3,26.2,30.14,West,281,0.0,1.0,78,0.00,,---,0.00,VWS V14.01,2013-02-12 15:58:00,
2013-02-12 10:03:00,32.5,26.1,30.10,West,281,0.0,2.0,77,0.00,,---,0.00,VWS V14.01,2013-02-12 16:03:00,
2013-02-12 10:08:00,32.9,26.5,30.10,West,281,1.0,1.0,77,0.00,,---,0.00,VWS V14.01,2013-02-12 16:08:00,
2013-02-12 10:13:00,33.0,26.3,30.11,West,281,0.0,2.0,76,0.00,,---,0.00,VWS V14.01,2013-02-12 16:13:00,
2013-02-12 10:18:00,33.2,26.5,30.11,West,281,0.0,1.0,76,0.00,,---,0.00,VWS V14.01,2013-02-12 16:18:00,
2013-02-12 10:23:00,33.3,26.2,30.15,West,281,0.0,2.0,75,0.00,,---,0.00,VWS V14.01,2013-02-12 16:23:00,
2013-02-12 10:28:00,33.5,26.8,30.10,West,281,1.0,2.0,76,0.00,,---,0.00,VWS V14.01,2013-02-12 16:28:00,
2013-02-12 10:33:00,33.6,26.5,30.10,West,281,0.0,2.0,75,0.00,,---,0.00,VWS V14.01,2013-02-12 16:33:00,
2013-02-12 10:38:00,33.4,26.7,30.15,West,281,1.0,2.0,76,0.00,,---,0.00,VWS V14.01,2013-02-12 16:38:00,
2013-02-12 10:43:00,33.7,27.0,30.15,West,281,0.0,0.0,76,0.00,,---,0.00,VWS V14.01,2013-02-12 16:43:00,
2013-02-12 10:48:00,33.9,27.1,30.10,West,281,0.0,1.0,76,0.00,,---,0.00,VWS V14.01,2013-02-12 16:48:00,
2013-02-12 10:53:00,34.4,27.6,30.10,West,281,0.0,1.0,76,0.00,,---,0.00,VWS V14.01,2013-02-12 16:53:00,
2013-02-12 10:58:00,34.7,27.6,30.09,West,281,0.0,1.0,75,0.00,,---,0.00,VWS V14.01,2013-02-12 16:58:00,
2013-02-12 11:03:00,34.8,27.7,30.09,West,281,0.0,0.0,75,0.00,,---,0.00,VWS V14.01,2013-02-12 17:03:00,
2013-02-12 11:08:00,35.0,27.6,30.14,West,281,0.0,0.0,74,0.00,,---,0.00,VWS V14.01,2013-02-12 17:08:00,
2013-02-12 11:13:00,35.1,27.7,30.09,West,281,0.0,1.0,74,0.00,,---,0.00,VWS V14.01,2013-02-12 17:13:00,
2013-02-12 11:18:00,35.4,28.0,30.09,West,281,1.0,1.0,74,0.00,,---,0.00,VWS V14.01,2013-02-12 17:18:00,
2013-02-12 11:23:00,35.3,27.5,30.14,West,281,0.0,0.0,73,0.00,,---,0.00,VWS V14.01,2013-02-12 17:23:00,
2013-02-12 11:28:00,35.8,28.0,30.09,West,281,0.0,1.0,73,0.00,,---,0.00,VWS V14.01,2013-02-12 17:28:00,
2013-02-12 11:33:00,36.4,28.9,30.09,West,281,0.0,1.0,74,0.00,,---,0.00,VWS V14.01,2013-02-12 17:33:00,
2013-02-12 11:38:00,36.6,28.8,30.13,West,281,2.0,2.0,73,0.00,,---,0.00,VWS V14.01,2013-02-12 17:38:00,
2013-02-12 11:43:00,37.2,29.4,30.13,West,280,1.0,2.0,73,0.00,,---,0.00,VWS V14.01,2013-02-12 17:43:00,
2013-02-12 11:48:00,37.4,29.2,30.13,West,280,1.0,1.0,72,0.00,,---,0.00,VWS V14.01,2013-02-12 17:48:00,
2013-02-12 11:53:00,37.2,29.0,30.08,West,276,0.0,2.0,72,0.00,,---,0.00,VWS V14.01,2013-02-12 17:53:00,
2013-02-12 11:58:00,37.5,29.3,30.08,West,276,0.0,0.0,72,0.00,,---,0.00,VWS V14.01,2013-02-12 17:58:00,
2013-02-12 12:03:00,37.8,29.9,30.08,West,280,0.0,0.0,73,0.00,,---,0.00,VWS V14.01,2013-02-12 18:03:00,
2013-02-12 12:08:00,38.4,30.2,30.08,West,280,0.0,0.0,72,0.00,,---,0.00,VWS V14.01,2013-02-12 18:08:00,
2013-02-12 12:13:00,38.4,29.8,30.07,West,276,2.0,2.0,71,0.00,,---,0.00,VWS V14.01,2013-02-12 18:13:00,
2013-02-12 12:18:00,38.8,29.9,30.12,West,280,0.0,1.0,70,0.00,,---,0.00,VWS V14.01,2013-02-12 18:18:00,
2013-02-12 12:23:00,39.4,30.4,30.12,West,276,0.0,1.0,70,0.00,,---,0.00,VWS V14.01,2013-02-12 18:23:00,
2013-02-12 12:28:00,39.9,30.2,30.12,West,276,0.0,1.0,68,0.00,,---,0.00,VWS V14.01,2013-02-12 18:28:00,
2013-02-12 12:33:00,40.1,29.7,30.07,West,276,0.0,2.0,66,0.00,,---,0.00,VWS V14.01,2013-02-12 18:33:00,
2013-02-12 12:38:00,40.4,30.3,30.11,South,182,3.0,3.0,67,0.00,,---,0.00,VWS V14.01,2013-02-12 18:38:00,
2013-02-12 12:43:00,40.3,29.5,30.07,South,170,1.0,2.0,65,0.00,,---,0.00,VWS V14.01,2013-02-12 18:43:00,
2013-02-12 12:48:00,40.7,29.9,30.12,South,170,2.0,3.0,65,0.00,,---,0.00,VWS V14.01,2013-02-12 18:48:00,
2013-02-12 12:53:00,41.3,30.1,30.12,South,170,1.0,4.0,64,0.00,,---,0.00,VWS V14.01,2013-02-12 18:53:00,
2013-02-12 12:58:00,41.1,29.1,30.07,South,170,0.0,1.0,62,0.00,,---,0.00,VWS V14.01,2013-02-12 18:58:00,
2013-02-12 13:03:00,41.3,28.5,30.11,South,170,2.0,3.0,60,0.00,,---,0.00,VWS V14.01,2013-02-12 19:03:00,
2013-02-12 13:08:00,41.5,28.3,30.11,WSW,245,1.0,4.0,59,0.00,,---,0.00,VWS V14.01,2013-02-12 19:08:00,
2013-02-12 13:13:00,41.2,27.6,30.11,South,170,1.0,3.0,58,0.00,,---,0.00,VWS V14.01,2013-02-12 19:13:00,
2013-02-12 13:18:00,41.7,27.6,30.05,South,181,4.0,6.0,57,0.00,,---,0.00,VWS V14.01,2013-02-12 19:18:00,
2013-02-12 13:23:00,42.0,27.5,30.09,SSE,168,0.0,4.0,56,0.00,,---,0.00,VWS V14.01,2013-02-12 19:23:00,
2013-02-12 13:28:00,41.9,26.9,30.05,South,178,2.0,3.0,55,0.00,,---,0.00,VWS V14.01,2013-02-12 19:28:00,
2013-02-12 13:33:00,41.8,26.8,30.09,SSE,151,0.0,3.0,55,0.00,,---,0.00,VWS V14.01,2013-02-12 19:33:00,
2013-02-12 13:38:00,42.0,27.0,30.09,South,170,0.0,3.0,55,0.00,,---,0.00,VWS V14.01,2013-02-12 19:38:00,
2013-02-12 13:43:00,42.4,27.4,30.08,South,176,1.0,5.0,55,0.00,,---,0.00,VWS V14.01,2013-02-12 19:43:00,
2013-02-12 13:48:00,42.4,27.0,30.08,SSE,166,2.0,6.0,54,0.00,,---,0.00,VWS V14.01,2013-02-12 19:48:00,
2013-02-12 13:53:00,42.4,27.0,30.08,South,169,2.0,4.0,54,0.00,,---,0.00,VWS V14.01,2013-02-12 19:53:00,
2013-02-12 13:58:00,42.4,26.0,30.08,South,169,0.0,3.0,52,0.00,,---,0.00,VWS V14.01,2013-02-12 19:58:00,
2013-02-12 14:03:00,42.7,26.8,30.08,SSE,168,2.0,4.0,53,0.00,,---,0.00,VWS V14.01,2013-02-12 20:03:00,
2013-02-12 14:08:00,42.5,26.6,30.08,SSE,168,0.0,3.0,53,0.00,,---,0.00,VWS V14.01,2013-02-12 20:08:00,
2013-02-12 14:13:00,42.8,26.4,30.03,South,178,4.0,6.0,52,0.00,,---,0.00,VWS V14.01,2013-02-12 20:13:00,
2013-02-12 14:18:00,42.8,26.4,30.07,South,176,2.0,4.0,52,0.00,,---,0.00,VWS V14.01,2013-02-12 20:18:00,
2013-02-12 14:23:00,42.6,26.7,30.02,South,176,1.0,4.0,53,0.00,,---,0.00,VWS V14.01,2013-02-12 20:23:00,
2013-02-12 14:28:00,43.2,26.8,30.02,South,176,0.0,3.0,52,0.00,,---,0.00,VWS V14.01,2013-02-12 20:28:00,
2013-02-12 14:33:00,43.4,26.5,30.06,South,176,0.0,0.0,51,0.00,,---,0.00,VWS V14.01,2013-02-12 20:33:00,
2013-02-12 14:38:00,43.3,26.4,30.06,South,176,0.0,2.0,51,0.00,,---,0.00,VWS V14.01,2013-02-12 20:38:00,
2013-02-12 14:43:00,42.9,26.0,30.01,South,176,1.0,2.0,51,0.00,,---,0.00,VWS V14.01,2013-02-12 20:43:00,
2013-02-12 14:48:00,43.1,26.2,30.01,South,176,0.0,3.0,51,0.00,,---,0.00,VWS V14.01,2013-02-12 20:48:00,
2013-02-12 14:53:00,42.9,26.0,30.01,South,176,0.0,1.0,51,0.00,,---,0.00,VWS V14.01,2013-02-12 20:53:00,
2013-02-12 14:58:00,43.1,25.7,30.05,South,176,0.0,1.0,50,0.00,,---,0.00,VWS V14.01,2013-02-12 20:58:00,
2013-02-12 15:03:00,43.2,25.8,30.05,South,176,1.0,2.0,50,0.00,,---,0.00,VWS V14.01,2013-02-12 21:03:00,
2013-02-12 15:08:00,43.3,25.4,30.00,South,176,2.0,3.0,49,0.00,,---,0.00,VWS V14.01,2013-02-12 21:08:00,
2013-02-12 15:13:00,43.2,25.4,30.04,South,176,0.0,1.0,49,0.00,,---,0.00,VWS V14.01,2013-02-12 21:13:00,
2013-02-12 15:18:00,43.1,25.3,29.99,South,176,0.0,0.0,49,0.00,,---,0.00,VWS V14.01,2013-02-12 21:18:00,
2013-02-12 15:23:00,42.9,25.1,29.99,South,176,0.0,1.0,49,0.00,,---,0.00,VWS V14.01,2013-02-12 21:23:00,
2013-02-12 15:28:00,43.0,25.6,29.99,South,176,0.0,0.0,50,0.00,,---,0.00,VWS V14.01,2013-02-12 21:28:00,
2013-02-12 15:33:00,42.9,26.0,30.03,South,176,0.0,0.0,51,0.00,,---,0.00,VWS V14.01,2013-02-12 21:33:00,
2013-02-12 15:38:00,43.0,26.1,29.99,South,176,0.0,3.0,51,0.00,,---,0.00,VWS V14.01,2013-02-12 21:38:00,
2013-02-12 15:43:00,42.9,26.0,29.99,South,176,0.0,1.0,51,0.00,,---,0.00,VWS V14.01,2013-02-12 21:43:00,
2013-02-12 15:48:00,42.8,25.9,29.99,South,176,0.0,1.0,51,0.00,,---,0.00,VWS V14.01,2013-02-12 21:48:00,
2013-02-12 15:53:00,43.2,26.3,29.98,South,176,0.0,1.0,51,0.00,,---,0.00,VWS V14.01,2013-02-12 21:53:00,
2013-02-12 15:58:00,42.8,25.0,30.02,South,176,1.0,3.0,49,0.00,,---,0.00,VWS V14.01,2013-02-12 21:58:00,
2013-02-12 16:03:00,42.7,25.4,29.98,South,178,0.0,2.0,50,0.00,,---,0.00,VWS V14.01,2013-02-12 22:03:00,
2013-02-12 16:08:00,42.6,25.3,30.03,South,178,0.0,2.0,50,0.00,,---,0.00,VWS V14.01,2013-02-12 22:08:00,
2013-02-12 16:13:00,42.6,25.3,29.98,South,178,0.0,1.0,50,0.00,,---,0.00,VWS V14.01,2013-02-12 22:13:00,
2013-02-12 16:18:00,42.7,25.4,29.98,South,178,0.0,1.0,50,0.00,,---,0.00,VWS V14.01,2013-02-12 22:18:00,
2013-02-12 16:23:00,42.5,25.2,29.98,South,178,0.0,1.0,50,0.00,,---,0.00,VWS V14.01,2013-02-12 22:23:00,
2013-02-12 16:28:00,42.4,25.1,30.02,South,178,0.0,1.0,50,0.00,,---,0.00,VWS V14.01,2013-02-12 22:28:00,
2013-02-12 16:33:00,42.7,25.4,29.98,South,178,0.0,0.0,50,0.00,,---,0.00,VWS V14.01,2013-02-12 22:33:00,
2013-02-12 16:38:00,42.6,24.8,29.98,South,178,0.0,3.0,49,0.00,,---,0.00,VWS V14.01,2013-02-12 22:38:00,
2013-02-12 16:43:00,42.4,25.1,29.98,South,178,0.0,1.0,50,0.00,,---,0.00,VWS V14.01,2013-02-12 22:43:00,
2013-02-12 16:48:00,42.3,24.5,30.02,South,178,2.0,3.0,49,0.00,,---,0.00,VWS V14.01,2013-02-12 22:48:00,
2013-02-12 16:53:00,42.2,24.9,30.02,South,178,0.0,1.0,50,0.00,,---,0.00,VWS V14.01,2013-02-12 22:53:00,
2013-02-12 16:58:00,42.1,24.3,30.01,South,178,0.0,1.0,49,0.00,,---,0.00,VWS V14.01,2013-02-12 22:58:00,
2013-02-12 17:03:00,42.1,24.8,30.01,South,178,0.0,1.0,50,0.00,,---,0.00,VWS V14.01,2013-02-12 23:03:00,
2013-02-12 17:08:00,42.0,24.7,30.01,South,178,0.0,1.0,50,0.00,,---,0.00,VWS V14.01,2013-02-12 23:08:00,
2013-02-12 17:13:00,42.1,25.3,29.97,South,178,0.0,0.0,51,0.00,,---,0.00,VWS V14.01,2013-02-12 23:13:00,
2013-02-12 17:18:00,42.0,24.7,29.97,South,178,0.0,1.0,50,0.00,,---,0.00,VWS V14.01,2013-02-12 23:18:00,
2013-02-12 17:23:00,41.9,25.1,30.01,South,178,0.0,0.0,51,0.00,,---,0.00,VWS V14.01,2013-02-12 23:23:00,
2013-02-12 17:28:00,41.9,25.1,30.01,South,178,0.0,0.0,51,0.00,,---,0.00,VWS V14.01,2013-02-12 23:28:00,
2013-02-12 17:33:00,41.8,25.0,29.97,South,178,0.0,0.0,51,0.00,,---,0.00,VWS V14.01,2013-02-12 23:33:00,
2013-02-12 17:38:00,41.6,24.8,30.01,South,178,0.0,1.0,51,0.00,,---,0.00,VWS V14.01,2013-02-12 23:38:00,
2013-02-12 17:43:00,41.5,25.2,29.97,South,178,0.0,0.0,52,0.00,,---,0.00,VWS V14.01,2013-02-12 23:43:00,
2013-02-12 17:48:00,41.3,25.0,29.97,South,178,0.0,0.0,52,0.00,,---,0.00,VWS V14.01,2013-02-12 23:48:00,
2013-02-12 17:53:00,41.1,24.8,29.97,South,178,0.0,0.0,52,0.00,,---,0.00,VWS V14.01,2013-02-12 23:53:00,
2013-02-12 17:58:00,41.0,25.2,30.01,South,178,0.0,0.0,53,0.00,,---,0.00,VWS V14.01,2013-02-12 23:58:00,
2013-02-12 18:03:00,40.8,24.5,30.01,South,178,0.0,0.0,52,0.00,,---,0.00,VWS V14.01,2013-02-13 00:03:00,
2013-02-12 18:08:00,40.7,24.9,30.01,South,178,0.0,0.0,53,0.00,,---,0.00,VWS V14.01,2013-02-13 00:08:00,
2013-02-12 18:13:00,40.7,24.9,30.01,South,178,0.0,0.0,53,0.00,,---,0.00,VWS V14.01,2013-02-13 00:13:00,
2013-02-12 18:18:00,40.6,25.3,30.01,South,178,0.0,0.0,54,0.00,,---,0.00,VWS V14.01,2013-02-13 00:18:00,
2013-02-12 18:23:00,40.5,24.7,29.97,South,178,0.0,0.0,53,0.00,,---,0.00,VWS V14.01,2013-02-13 00:23:00,
2013-02-12 18:28:00,40.4,25.5,30.01,South,178,0.0,0.0,55,0.00,,---,0.00,VWS V14.01,2013-02-13 00:28:00,
2013-02-12 18:33:00,40.1,25.7,30.01,South,178,0.0,0.0,56,0.00,,---,0.00,VWS V14.01,2013-02-13 00:33:00,
2013-02-12 18:38:00,39.8,25.4,29.97,South,178,0.0,0.0,56,0.00,,---,0.00,VWS V14.01,2013-02-13 00:38:00,
2013-02-12 18:43:00,39.8,25.4,30.01,South,178,0.0,0.0,56,0.00,,---,0.00,VWS V14.01,2013-02-13 00:43:00,
2013-02-12 18:48:00,39.7,25.7,30.01,South,178,0.0,0.0,57,0.00,,---,0.00,VWS V14.01,2013-02-13 00:48:00,
2013-02-12 18:53:00,39.7,25.7,30.01,South,178,0.0,0.0,57,0.00,,---,0.00,VWS V14.01,2013-02-13 00:53:00,
2013-02-12 18:58:00,39.7,26.1,30.01,South,178,0.0,0.0,58,0.00,,---,0.00,VWS V14.01,2013-02-13 00:58:00,
2013-02-12 19:03:00,39.5,25.5,29.97,South,178,0.0,0.0,57,0.00,,---,0.00,VWS V14.01,2013-02-13 01:03:00,
2013-02-12 19:08:00,39.5,26.0,29.97,South,178,0.0,0.0,58,0.00,,---,0.00,VWS V14.01,2013-02-13 01:08:00,
2013-02-12 19:13:00,39.3,25.8,30.01,South,178,0.0,0.0,58,0.00,,---,0.00,VWS V14.01,2013-02-13 01:13:00,
2013-02-12 19:18:00,39.1,25.6,30.01,South,178,0.0,0.0,58,0.00,,---,0.00,VWS V14.01,2013-02-13 01:18:00,
2013-02-12 19:23:00,38.9,25.4,29.97,South,178,0.0,0.0,58,0.00,,---,0.00,VWS V14.01,2013-02-13 01:23:00,
2013-02-12 19:28:00,38.7,26.0,30.01,South,178,0.0,0.0,60,0.00,,---,0.00,VWS V14.01,2013-02-13 01:28:00,
2013-02-12 19:32:00,38.2,25.5,30.01,South,178,0.0,0.0,60,0.00,,---,0.00,VWS V14.01,2013-02-13 01:32:00,
2013-02-12 19:37:00,37.8,25.6,30.00,South,178,0.0,0.0,61,0.00,,---,0.00,VWS V14.01,2013-02-13 01:37:00,
2013-02-12 19:42:00,37.7,25.9,30.00,South,178,0.0,0.0,62,0.00,,---,0.00,VWS V14.01,2013-02-13 01:42:00,
2013-02-12 19:47:00,37.8,25.6,29.96,South,178,0.0,0.0,61,0.00,,---,0.00,VWS V14.01,2013-02-13 01:47:00,
2013-02-12 19:52:00,37.8,25.6,29.97,South,178,0.0,0.0,61,0.00,,---,0.00,VWS V14.01,2013-02-13 01:52:00,
2013-02-12 19:57:00,37.9,25.7,30.01,South,178,0.0,0.0,61,0.00,,---,0.00,VWS V14.01,2013-02-13 01:57:00,
2013-02-12 20:02:00,37.5,25.7,30.01,South,178,0.0,0.0,62,0.00,,---,0.00,VWS V14.01,2013-02-13 02:02:00,
2013-02-12 20:07:00,37.2,25.8,30.01,South,178,0.0,0.0,63,0.00,,---,0.00,VWS V14.01,2013-02-13 02:07:00,
2013-02-12 20:12:00,37.0,26.0,30.01,South,178,0.0,0.0,64,0.00,,---,0.00,VWS V14.01,2013-02-13 02:12:00,
2013-02-12 20:17:00,36.9,25.5,29.97,South,178,0.0,0.0,63,0.00,,---,0.00,VWS V14.01,2013-02-13 02:17:00,
2013-02-12 20:22:00,36.8,25.4,30.01,South,178,0.0,0.0,63,0.00,,---,0.00,VWS V14.01,2013-02-13 02:22:00,
2013-02-12 20:27:00,36.6,25.6,29.97,South,178,0.0,0.0,64,0.00,,---,0.00,VWS V14.01,2013-02-13 02:27:00,
2013-02-12 20:32:00,36.4,25.4,30.01,South,178,0.0,0.0,64,0.00,,---,0.00,VWS V14.01,2013-02-13 02:32:00,
2013-02-12 20:37:00,36.2,25.2,29.97,South,178,0.0,0.0,64,0.00,,---,0.00,VWS V14.01,2013-02-13 02:37:00,
2013-02-12 20:42:00,35.9,25.3,29.97,South,178,0.0,0.0,65,0.00,,---,0.00,VWS V14.01,2013-02-13 02:42:00,
2013-02-12 20:47:00,35.4,25.2,29.97,South,178,0.0,0.0,66,0.00,,---,0.00,VWS V14.01,2013-02-13 02:47:00,
2013-02-12 20:52:00,35.1,25.3,30.01,South,178,0.0,0.0,67,0.00,,---,0.00,VWS V14.01,2013-02-13 02:52:00,
2013-02-12 20:57:00,34.6,25.1,30.01,South,178,0.0,0.0,68,0.00,,---,0.00,VWS V14.01,2013-02-13 02:57:00,
2013-02-12 21:02:00,34.3,25.2,29.97,South,178,0.0,0.0,69,0.00,,---,0.00,VWS V14.01,2013-02-13 03:02:00,
2013-02-12 21:07:00,34.0,25.3,29.97,South,178,0.0,0.0,70,0.00,,---,0.00,VWS V14.01,2013-02-13 03:07:00,
2013-02-12 21:12:00,33.9,25.2,29.97,South,178,0.0,0.0,70,0.00,,---,0.00,VWS V14.01,2013-02-13 03:12:00,
2013-02-12 21:17:00,34.0,25.3,29.97,South,178,0.0,0.0,70,0.00,,---,0.00,VWS V14.01,2013-02-13 03:17:00,
2013-02-12 21:22:00,33.7,25.0,29.97,South,178,0.0,0.0,70,0.00,,---,0.00,VWS V14.01,2013-02-13 03:22:00,
2013-02-12 21:27:00,33.5,25.1,29.96,South,178,0.0,0.0,71,0.00,,---,0.00,VWS V14.01,2013-02-13 03:27:00,
2013-02-12 21:32:00,33.0,25.0,30.00,South,178,0.0,0.0,72,0.00,,---,0.00,VWS V14.01,2013-02-13 03:32:00,
2013-02-12 21:37:00,33.0,25.0,29.96,South,178,0.0,1.0,72,0.00,,---,0.00,VWS V14.01,2013-02-13 03:37:00,
2013-02-12 21:42:00,33.2,25.2,29.96,South,178,0.0,0.0,72,0.00,,---,0.00,VWS V14.01,2013-02-13 03:42:00,
2013-02-12 21:47:00,32.7,25.0,30.00,South,178,0.0,1.0,73,0.00,,---,0.00,VWS V14.01,2013-02-13 03:47:00,
2013-02-12 21:52:00,32.5,24.8,29.96,South,178,0.0,0.0,73,0.00,,---,0.00,VWS V14.01,2013-02-13 03:52:00,
2013-02-12 21:57:00,32.4,24.7,29.96,South,178,0.0,0.0,73,0.00,,---,0.00,VWS V14.01,2013-02-13 03:57:00,
2013-02-12 22:02:00,31.8,24.5,29.96,South,178,0.0,0.0,74,0.00,,---,0.00,VWS V14.01,2013-02-13 04:02:00,
2013-02-12 22:07:00,31.5,24.2,30.00,South,178,0.0,0.0,74,0.00,,---,0.00,VWS V14.01,2013-02-13 04:07:00,
2013-02-12 22:12:00,31.2,24.2,29.96,South,178,0.0,0.0,75,0.00,,---,0.00,VWS V14.01,2013-02-13 04:12:00,
2013-02-12 22:17:00,31.3,24.3,30.00,South,178,0.0,0.0,75,0.00,,---,0.00,VWS V14.01,2013-02-13 04:17:00,
2013-02-12 22:22:00,31.6,24.6,29.96,South,178,0.0,0.0,75,0.00,,---,0.00,VWS V14.01,2013-02-13 04:22:00,
2013-02-12 22:27:00,31.7,24.4,29.96,South,178,0.0,0.0,74,0.00,,---,0.00,VWS V14.01,2013-02-13 04:27:00,
2013-02-12 22:32:00,31.8,24.1,30.00,South,178,0.0,0.0,73,0.00,,---,0.00,VWS V14.01,2013-02-13 04:32:00,
2013-02-12 22:37:00,31.4,24.1,29.95,South,178,0.0,0.0,74,0.00,,---,0.00,VWS V14.01,2013-02-13 04:37:00,
2013-02-12 22:42:00,30.5,23.5,29.99,South,178,0.0,0.0,75,0.00,,---,0.00,VWS V14.01,2013-02-13 04:42:00,
2013-02-12 22:47:00,30.6,24.0,29.95,South,178,0.0,0.0,76,0.00,,---,0.00,VWS V14.01,2013-02-13 04:47:00,
2013-02-12 22:52:00,30.2,23.6,30.00,South,178,0.0,0.0,76,0.00,,---,0.00,VWS V14.01,2013-02-13 04:52:00,
2013-02-12 22:57:00,30.5,23.9,29.99,South,178,0.0,0.0,76,0.00,,---,0.00,VWS V14.01,2013-02-13 04:57:00,
2013-02-12 23:00:00,30.6,24.0,30.00,South,178,0.0,0.0,76,0.00,,---,0.00,VWS V14.01,2013-02-13 05:00:00,
2013-02-12 23:05:00,30.5,23.9,29.95,South,178,0.0,0.0,76,0.00,,---,0.00,VWS V14.01,2013-02-13 05:05:00,
2013-02-12 23:10:00,29.7,23.4,29.95,South,178,0.0,0.0,77,0.00,,---,0.00,VWS V14.01,2013-02-13 05:10:00,
2013-02-12 23:15:00,29.4,23.4,29.95,South,178,0.0,0.0,78,0.00,,---,0.00,VWS V14.01,2013-02-13 05:15:00,
2013-02-12 23:20:00,29.3,23.6,29.95,South,178,0.0,1.0,79,0.00,,---,0.00,VWS V14.01,2013-02-13 05:20:00,
2013-02-12 23:25:00,29.4,23.7,29.99,South,186,0.0,1.0,79,0.00,,---,0.00,VWS V14.01,2013-02-13 05:25:00,
2013-02-12 23:30:00,29.8,23.8,29.95,South,186,0.0,1.0,78,0.00,,---,0.00,VWS V14.01,2013-02-13 05:30:00,
2013-02-12 23:35:00,30.2,24.2,29.99,South,186,0.0,0.0,78,0.00,,---,0.00,VWS V14.01,2013-02-13 05:35:00,
2013-02-12 23:40:00,30.4,24.1,29.95,South,186,0.0,0.0,77,0.00,,---,0.00,VWS V14.01,2013-02-13 05:40:00,
2013-02-12 23:45:00,30.3,24.0,29.95,South,186,0.0,0.0,77,0.00,,---,0.00,VWS V14.01,2013-02-13 05:45:00,
2013-02-12 23:50:00,30.2,23.9,30.00,South,186,0.0,0.0,77,0.00,,---,0.00,VWS V14.01,2013-02-13 05:50:00,
2013-02-12 23:55:00,29.9,23.6,29.95,South,186,0.0,1.0,77,0.00,,---,0.00,VWS V14.01,2013-02-13 05:55:00,